Location: Newark
(21.1200°N, 73.4000°E)
Time: 03:49:10
(UTC+00:00)

Courier 1B Rocket - Pass Details

Date: 22 January 2020
Orbit: 920 x 1202 km, 28.2° (Epoch: 17 February)

Event Time Altitude Azimuth Distance (km) Brightness Sun altitude
Rises 12:16:34 0° 290° (WNW) 3,608 8.7 6.3°
Reaches altitude 10° 12:19:14 10° 292° (WNW) 2,638 8.0 5.8°
Maximum altitude 12:25:32 76° 18° (NNE) 944 5.0 4.4°
Drops below altitude 10° 12:31:46 10° 104° (ESE) 2,609 6.8 3.1°
Sets 12:34:24 0° 106° (ESE) 3,566 7.5 2.5°
